Location: S�deilles
(46.7500°N, 6.9329°E)
Time: 16:19:44
(UTC+00:00)

FALCON 9 DEB - Pass Details

Date: 08 March 2021
Orbit: 370 x 389 km, 53.0° (Epoch: 20 April)

Event Time Altitude Azimuth Distance (km) Brightness Sun altitude
Rises 18:09:11 0° 299° (WNW) 2,311 8.1 -7.8°
Reaches altitude 10° 18:11:19 10° 306° (NW) 1,452 6.7 -8.2°
Maximum altitude 18:14:27 45° 21° (NNE) 559 3.5 -8.7°
Enters shadow 18:17:06 13° 93° (E) 1,257 4.8 -9.2°
